Honolulu, HI

5:39 PM HST on August 31, 2016 (GMT -1000)
Honolulu International

Weather History for PHNL - August, 2012

Change the Weather History Date:

Wednesday, August 1, 2012

  Actual Average Record
Temperature  
Mean Temperature 82 °F 82 °F  
Max Temperature 88 °F 88 °F 91 °F (2003)
Min Temperature 76 °F 75 °F 70 °F (1966)
Degree Days  
Heating Degree Days 0 0  
Month to date heating degree days 0 0  
Since 1 June heating degree days 0 0  
Since 1 July heating degree days 0 0  
Cooling Degree Days 17 17  
Month to date cooling degree days 17 17  
Year to date cooling degree days 2473 2477  
Since 1 June cooling degree days 899 975  
Growing Degree Days 32 (Base 50)    
Moisture  
Dew Point 66 °F    
Average Humidity 63    
Maximum Humidity 82    
Minimum Humidity 43    
Precipitation  
Precipitation T in 0.02 in 0.13 in (1958)
Month to date precipitation T 0.02  
Year to date precipitation 7.69 8.36  
Snow  
Snow 0.00 in - - ()
Month to date snowfall 0.0  
Since 1 June snowfall 0.0  
Since 1 July snowfall 0.0  
Snow Depth 0.00 in    
Sea Level Pressure  
Sea Level Pressure 30.05 in    
Wind  
Wind Speed 15 mph (ENE)    
Max Wind Speed 23 mph    
Max Gust Speed 31 mph    
Visibility 10 miles    
Events Rain    
T = Trace of Precipitation, MM = Missing Value Source: NWS Daily Summary

Daily Weather History Graph

Daily Weather History Graph

Search for Another Location

Airport or City:

Trip Planner

Search our weather history database for the weather conditions in past years. The results will help you decide how hot, cold, wet, or windy it might be!

Date:

Astronomy

Aug. 01, 2012 Rise Set
Actual Time 6:05 AM HST 7:10 PM HST
Civil Twilight 5:41 AM HST 7:33 PM HST
Nautical Twilight 5:13 AM HST 8:01 PM HST
Astronomical Twilight 4:44 AM HST 8:30 PM HST
Moon 6:57 PM HST 5:42 AM HST
Length of Visible Light 13h 52m
Length of Day
13h 04m
Full, 100% of the Moon is Illuminated
Aug 1
Full
Aug 1
Full
Aug 9
Last Quarter
Aug 17
New
Aug 24
First Quarter

Hourly Weather History & Observations

Time (HST) Temp. Heat Index Dew Point Humidity Pressure Visibility Wind Dir Wind Speed Gust Speed Precip Events Conditions
12:53 AM 77.0 °F - 69.1 °F 76% 30.07 in 10.0 mi ENE 8.1 mph - N/A   Scattered Clouds
1:53 AM 77.0 °F - 69.1 °F 76% 30.06 in 10.0 mi ENE 13.8 mph - 0.00 in   Mostly Cloudy
2:53 AM 77.0 °F - 68.0 °F 74% 30.05 in 10.0 mi NE 9.2 mph - N/A   Overcast
3:53 AM 77.0 °F - 66.9 °F 71% 30.04 in 10.0 mi ENE 11.5 mph - N/A   Partly Cloudy
4:33 AM 77.0 °F - 68.0 °F 74% 30.04 in 10.0 mi ENE 10.4 mph - N/A   Mostly Cloudy
4:53 AM 75.9 °F - 69.1 °F 79% 30.04 in 10.0 mi ENE 10.4 mph - 0.00 in Rain Light Rain
5:53 AM 77.0 °F - 69.1 °F 76% 30.04 in 10.0 mi ENE 11.5 mph - 0.00 in   Mostly Cloudy
6:53 AM 78.1 °F - 68.0 °F 71% 30.06 in 10.0 mi ENE 12.7 mph - N/A   Mostly Cloudy
7:53 AM 79.0 °F - 69.1 °F 72% 30.07 in 10.0 mi ENE 12.7 mph - N/A   Mostly Cloudy
8:53 AM 82.0 °F 85.5 °F 69.1 °F 65% 30.07 in 10.0 mi ENE 17.3 mph - N/A   Scattered Clouds
9:53 AM 84.0 °F 86.3 °F 66.0 °F 55% 30.07 in 10.0 mi NE 16.1 mph 25.3 mph N/A   Scattered Clouds
10:53 AM 86.0 °F 87.6 °F 64.9 °F 49% 30.07 in 10.0 mi ENE 19.6 mph 24.2 mph N/A   Scattered Clouds
11:53 AM 87.1 °F 88.3 °F 64.0 °F 46% 30.06 in 10.0 mi ENE 23.0 mph 29.9 mph N/A   Scattered Clouds
12:53 PM 87.1 °F 88.3 °F 64.0 °F 46% 30.04 in 10.0 mi ENE 18.4 mph 26.5 mph N/A   Scattered Clouds
1:53 PM 87.1 °F 88.3 °F 64.0 °F 46% 30.04 in 10.0 mi ENE 21.9 mph 27.6 mph N/A   Scattered Clouds
2:53 PM 87.1 °F 87.8 °F 63.0 °F 44% 30.02 in 10.0 mi ENE 21.9 mph 28.8 mph N/A   Scattered Clouds
3:53 PM 84.9 °F 85.9 °F 63.0 °F 48% 30.02 in 10.0 mi ENE 18.4 mph 26.5 mph N/A   Partly Cloudy
4:53 PM 82.9 °F 84.6 °F 64.9 °F 54% 30.03 in 10.0 mi ENE 16.1 mph 25.3 mph N/A   Partly Cloudy
5:53 PM 82.0 °F 83.4 °F 64.0 °F 54% 30.04 in 10.0 mi NE 17.3 mph 25.3 mph N/A   Partly Cloudy
6:53 PM 80.1 °F 81.7 °F 64.0 °F 58% 30.04 in 10.0 mi NE 13.8 mph - N/A   Partly Cloudy
7:53 PM 78.1 °F - 64.9 °F 64% 30.06 in 10.0 mi ENE 10.4 mph - N/A   Partly Cloudy
8:53 PM 78.1 °F - 64.9 °F 64% 30.07 in 10.0 mi ENE 13.8 mph - N/A   Partly Cloudy
9:53 PM 77.0 °F - 66.0 °F 69% 30.09 in 10.0 mi ENE 17.3 mph - N/A   Partly Cloudy
10:53 PM 77.0 °F - 64.9 °F 66% 30.09 in 10.0 mi ENE 16.1 mph 23.0 mph N/A   Partly Cloudy
11:53 PM 77.0 °F - 66.0 °F 69% 30.08 in 10.0 mi ENE 10.4 mph - N/A   Partly Cloudy